STARLINK-2715 (48697 NORAD) Tracking and Keplerian Element Data

This shows tracking and keplerian element data for the satellite.

Feedback or suggestion? Click here.




ElementValue
Catalog48697
NameSTARLINK-2715
Epoch Orbit369
Epoch Day214.91667824
Epoch Year2021
RAAN85.9841
Inclination53.0473
Eccentricity0.0002239
Argument of Perigee34.6252
Mean Anonmoly55.9851
Mean Motion15.73209201
Decay Rate-1.28E-06
L11 48697U 21044BM 21214.91667824 -.00000128 00000-0 35198-5 0 9991
L22 48697 53.0473 85.9841 0002239 34.6252 55.9851 15.73209201 3692

Live tracking and technical data element details for STARLINK-2715 (NORAD 48697). STARLINK-2715 can be tracked NOW for your location showing map with azimuth and elevation plus other details from your city location.

Track the satellite on the map from your city or location and see movement details for azimuth, elevation, latitude, longitude, range, height, and movement on the map or in text.







IsCatalogInMostPopularTable: catalog: 48697, numindb: 23
Update: records affected: 1



GetName: 48697 STARLINK-2715

Hit Count: updated at: Tue, 03 Aug 2021 23:24:42 GMT